User: anonymous   Login
Location: Aubervilles
(48.9167°N, 2.3833°E)
Time: 09:18:27
(UTC+00:00)
Language:

Cosmos 1633 - Orbit

View from above orbital plane
View from above orbital plane
View from above satellite
View from above satellite

Ground track
Ground track

The orbit data is extracted from the following two-line orbital elements,

1 15592U 85020A   23156.82654676  .00021854  00000-0  39141-3 0  9999
2 15592  82.5315 281.2552 0007007 340.2738  19.8241 15.49793493 97874
Epoch (UTC): 05 June 2023 19:50:13
Eccentricity: 0.0007007
inclination: 82.5315°
perigee height: 412 km
apogee height: 422 km
right ascension of ascending node: 281.2552°
argument of perigee: 340.2738°
revolutions per day: 15.49793493
mean anomaly at epoch: 19.8241°
orbit number at epoch: 9787

The dashed part of the orbit path shows where the satellite is in the earth's shadow,  

DLR